�v������,���r���O(���x),�����t���O,���r���O(���x),�����t���O,��1(���x),�����t���O,�������x,�����t���O,�C�ۑ�(���x),�����t���O,�C�ۑ�(���x),�����t���O
1/1/2004 0:00,21.2,0,43,0,19.3,0,11.1,0,9.4,0,49.8,0
1/1/2004 0:15,21.2,0,42.7,0,19.3,0,11.2,0,9.4,0,49.8,0
1/1/2004 0:30,21.2,0,42.9,0,19.3,0,10.6,0,9.4,0,49.8,0
1/1/2004 0:45,21.2,0,43.1,0,19.3,0,10.7,0,9.4,0,49.8,0
1/1/2004 1:00,21.1,0,41.8,0,19.3,0,10.7,0,9.4,0,49.8,0
1/1/2004 1:15,21.2,0,42.5,0,19.3,0,10.8,0,9.3,0,50.3,0
1/1/2004 1:30,21.4,0,43.1,0,19.3,0,10.9,0,9.3,0,50.8,0
1/1/2004 1:45,21.5,0,44.2,0,19.4,0,11,0,9.2,0,51.3,0
1/1/2004 2:00,21.5,0,45,0,19.4,0,11.1,0,9.2,0,51.8,0
1/1/2004 2:15,21.1,0,45.2,0,19.4,0,11.1,0,9.1,0,52,0
1/1/2004 2:30,20.8,0,45.4,0,19.3,0,11.2,0,8.9,0,52.3,0
1/1/2004 2:45,20.4,0,45.4,0,19.3,0,11.3,0,8.8,0,52.5,0
1/1/2004 3:00,20.1,0,45.5,0,19.2,0,11.3,0,8.7,0,52.8,0
1/1/2004 3:15,19.9,0,45.5,0,19.1,0,11.4,0,8.6,0,52.5,0
1/1/2004 3:30,19.6,0,45.8,0,19,0,11.5,0,8.4,0,52.3,0
1/1/2004 3:45,19.3,0,45.7,0,18.9,0,11.6,0,8.3,0,52,0
1/1/2004 4:00,19.1,0,45.6,0,18.8,0,11.6,0,8.2,0,51.8,0
1/1/2004 4:15,18.8,0,45.4,0,18.7,0,11.7,0,8.3,0,49.8,0
1/1/2004 4:30,18.6,0,45.5,0,18.6,0,11.8,0,8.5,0,47.8,0
1/1/2004 4:45,18.3,0,45.3,0,18.5,0,11.9,0,8.6,0,45.8,0
1/1/2004 5:00,18.1,0,45.4,0,18.3,0,11.9,0,8.8,0,43.8,0
1/1/2004 5:15,17.9,0,45.6,0,18.2,0,12,0,8.8,0,43.5,0
1/1/2004 5:30,17.6,0,45.3,0,18.1,0,12.1,0,8.8,0,43.3,0
1/1/2004 5:45,17.4,0,45,0,17.9,0,12.1,0,8.9,0,43,0
1/1/2004 6:00,17.2,0,45.2,0,17.8,0,12.2,0,8.9,0,42.8,0
1/1/2004 6:15,16.9,0,45.3,0,17.7,0,12.2,0,8.7,0,43.5,0
1/1/2004 6:30,16.7,0,45.4,0,17.6,0,12.3,0,8.6,0,44.3,0
1/1/2004 6:45,16.8,0,45.3,0,17.5,0,12.4,0,8.4,0,45,0
1/1/2004 7:00,17.4,0,45.3,0,17.4,0,12.4,0,8.3,0,45.8,0
1/1/2004 7:15,17.8,0,45.1,0,17.4,0,12.5,0,8.4,0,45,0
1/1/2004 7:30,18.1,0,45.1,0,17.4,0,12.5,0,8.6,0,44.3,0
1/1/2004 7:45,18.4,0,44.9,0,17.4,0,12.6,0,8.7,0,43.5,0
1/1/2004 8:00,18.4,0,44.9,0,17.3,0,12.6,0,8.9,0,42.8,0
1/1/2004 8:15,18.3,0,44.9,0,17.3,0,12.7,0,9.1,0,42.3,0
1/1/2004 8:30,18.3,0,44.9,0,17.4,0,12.7,0,9.4,0,41.8,0
1/1/2004 8:45,18.2,0,45,0,17.4,0,12.7,0,9.6,0,41.3,0
1/1/2004 9:00,18.2,0,45.2,0,17.5,0,12.8,0,9.9,0,40.8,0
1/1/2004 9:15,18.2,0,45.4,0,17.6,0,12.8,0,10.1,0,40,0
1/1/2004 9:30,18.4,0,46.2,0,17.7,0,12.9,0,10.4,0,39.3,0
1/1/2004 9:45,18.4,0,47.1,0,17.8,0,12.9,0,10.6,0,38.5,0
1/1/2004 10:00,18.4,0,47.6,0,17.8,0,13,0,10.9,0,37.8,0
1/1/2004 10:15,18.4,0,48.3,0,17.9,0,13.1,0,11,0,36.5,0
1/1/2004 10:30,18.4,0,48.7,0,17.9,0,13.1,0,11.2,0,35.3,0
1/1/2004 10:45,18.6,0,48.5,0,18,0,13.3,0,11.3,0,34,0
1/1/2004 11:00,19,0,48.3,0,18.1,0,13.3,0,11.5,0,32.8,0
1/1/2004 11:15,19.2,0,48.3,0,18.2,0,13.3,0,11.6,0,32.8,0
1/1/2004 11:30,19.3,0,48.3,0,18.3,0,13.3,0,11.7,0,32.8,0
1/1/2004 11:45,19.3,0,48.2,0,18.4,0,13.3,0,11.8,0,32.8,0
1/1/2004 12:00,19.3,0,48.3,0,18.5,0,13.3,0,11.9,0,32.8,0
1/1/2004 12:15,19.3,0,48.4,0,18.6,0,11.9,0,11.9,0,32.5,0
1/1/2004 12:30,19.3,0,48.1,0,18.7,0,11.9,0,11.9,0,32.3,0
1/1/2004 12:45,19.1,0,47.7,0,18.5,0,11.1,0,11.9,0,32,0
1/1/2004 13:00,19.1,0,47.6,0,18.5,0,11.2,0,11.9,0,31.8,0
1/1/2004 13:15,19.1,0,47.5,0,18.6,0,11.2,0,11.9,0,31.8,0
1/1/2004 13:30,19,0,47.7,0,18.6,0,11.3,0,11.9,0,31.8,0
1/1/2004 13:45,19,0,47.8,0,18.6,0,11.4,0,11.9,0,31.8,0
1/1/2004 14:00,19,0,48,0,18.6,0,11.4,0,11.9,0,31.8,0
1/1/2004 14:15,19,0,48.1,0,18.6,0,11.5,0,11.9,0,31.8,0
1/1/2004 14:30,19.1,0,48.1,0,18.6,0,11.5,0,12,0,31.8,0
1/1/2004 14:45,19.1,0,48.3,0,18.7,0,11.6,0,12,0,31.8,0
1/1/2004 15:00,19,0,48.5,0,18.7,0,11.7,0,12.1,0,31.8,0
1/1/2004 15:15,19,0,48.7,0,18.7,0,11.2,0,12,0,33.5,0
1/1/2004 15:30,18.9,0,48.8,0,18.7,0,11.2,0,11.8,0,35.3,0
1/1/2004 15:45,18.9,0,48.8,0,18.7,0,10.8,0,11.7,0,37,0
1/1/2004 16:00,18.8,0,48.7,0,18.7,0,10.8,0,11.6,0,38.8,0
1/1/2004 16:15,18.7,0,48.5,0,18.7,0,10.9,0,11.6,0,40,0
1/1/2004 16:30,18.6,0,48.4,0,18.7,0,11,0,11.6,0,41.3,0
1/1/2004 16:45,18.4,0,48.1,0,18.8,0,11,0,11.7,0,42.5,0
1/1/2004 17:00,18.4,0,48.2,0,18.8,0,11.1,0,11.7,0,43.8,0
1/1/2004 17:15,18.5,0,48.5,0,18.8,0,10.8,0,11.6,0,44.8,0
1/1/2004 17:30,18.8,0,48.7,0,18.8,0,10.9,0,11.6,0,45.8,0
1/1/2004 17:45,19.1,0,48.8,0,18.7,0,11,0,11.5,0,46.8,0
1/1/2004 18:00,19.3,0,49,0,18.7,0,11,0,11.5,0,47.8,0
1/1/2004 18:15,19.5,0,48.8,0,18.7,0,11.1,0,11.3,0,49.5,0
1/1/2004 18:30,19.8,0,48.9,0,18.7,0,10.8,0,11.1,0,51.3,0
1/1/2004 18:45,20,0,49.2,0,18.7,0,10.8,0,10.9,0,53,0
1/1/2004 19:00,20.2,0,49,0,18.8,0,10.9,0,10.7,0,54.8,0
1/1/2004 19:15,20.3,0,48.6,0,18.8,0,11,0,10.7,0,54.8,0
1/1/2004 19:30,20.4,0,48.2,0,18.8,0,11.1,0,10.7,0,54.8,0
1/1/2004 19:45,20.6,0,47.9,0,18.8,0,11.1,0,10.7,0,54.8,0
1/1/2004 20:00,20.7,0,47.5,0,18.8,0,11.2,0,10.7,0,54.8,0
1/1/2004 20:15,20.3,0,45.2,0,18.8,0,10.7,0,10.6,0,56.3,0
1/1/2004 20:30,20.6,0,45.1,0,18.8,0,10.4,0,10.5,0,57.8,0
1/1/2004 20:45,20.7,0,45.6,0,18.8,0,10.5,0,10.5,0,59.3,0
1/1/2004 21:00,20.8,0,45.6,0,18.8,0,10.5,0,10.4,0,60.8,0
1/1/2004 21:15,20.8,0,45.4,0,18.8,0,10.6,0,10.4,0,60.5,0
1/1/2004 21:30,20.8,0,45.3,0,18.8,0,10.7,0,10.5,0,60.3,0
1/1/2004 21:45,20.8,0,45.4,0,18.8,0,10.8,0,10.5,0,60,0
1/1/2004 22:00,20.8,0,45.8,0,18.8,0,10.9,0,10.6,0,59.8,0
1/1/2004 22:15,20.9,0,45.8,0,18.8,0,10.9,0,10.3,0,61.3,0
1/1/2004 22:30,20.9,0,45.8,0,18.8,0,10.4,0,10,0,62.8,0
1/1/2004 22:45,21,0,45.8,0,18.9,0,10.5,0,9.8,0,64.3,0
1/1/2004 23:00,21,0,45.7,0,18.9,0,10.6,0,9.5,0,65.8,0
1/1/2004 23:15,21.1,0,45.5,0,18.9,0,10.6,0,9.5,0,65.1,0
1/1/2004 23:30,21.2,0,45.7,0,19,0,10.7,0,9.4,0,64.3,0
1/1/2004 23:45,21.2,0,45.9,0,19,0,10.8,0,9.4,0,63.6,0
1/2/2004 0:00,21.3,0,45.7,0,19,0,10.9,0,9.4,0,62.8,0
1/2/2004 0:15,21.1,0,45.5,0,18.9,0,11,0,9.1,0,62.3,0
1/2/2004 0:30,20.8,0,45.1,0,18.8,0,11,0,8.8,0,61.8,0
1/2/2004 0:45,20.5,0,45.1,0,18.8,0,11.1,0,8.6,0,61.3,0
1/2/2004 1:00,20.3,0,47.3,0,18.8,0,11.2,0,8.3,0,60.8,0
1/2/2004 1:15,20,0,47.8,0,18.7,0,11.3,0,8,0,62.1,0
1/2/2004 1:30,19.7,0,48,0,18.7,0,11.4,0,7.7,0,63.3,0
1/2/2004 1:45,19.5,0,47.8,0,18.7,0,11.5,0,7.5,0,64.6,0
1/2/2004 2:00,19.3,0,47.8,0,18.6,0,11.5,0,7.2,0,65.8,0
1/2/2004 2:15,19,0,48,0,18.6,0,11.6,0,7.2,0,65.3,0
1/2/2004 2:30,18.8,0,48,0,18.5,0,11.7,0,7.2,0,64.8,0
1/2/2004 2:45,18.6,0,47.8,0,18.5,0,11.7,0,7.2,0,64.3,0
1/2/2004 3:00,18.4,0,47.6,0,18.4,0,11.8,0,7.2,0,63.8,0
1/2/2004 3:15,18.1,0,47.6,0,18.3,0,11.9,0,7,0,63.5,0
1/2/2004 3:30,17.9,0,47.6,0,18.2,0,12,0,6.8,0,63.3,0
1/2/2004 3:45,17.7,0,47.5,0,18.2,0,12.1,0,6.7,0,63,0
1/2/2004 4:00,17.5,0,47.6,0,18.1,0,12.1,0,6.5,0,62.8,0
1/2/2004 4:15,17.3,0,47.7,0,18,0,12.1,0,6.2,0,63.3,0
1/2/2004 4:30,17.1,0,47.9,0,17.8,0,12.1,0,5.9,0,63.8,0
1/2/2004 4:45,16.9,0,47.9,0,17.7,0,12.2,0,5.6,0,64.3,0
1/2/2004 5:00,16.6,0,48,0,17.6,0,12.2,0,5.3,0,64.8,0
1/2/2004 5:15,16.5,0,48.2,0,17.5,0,12.3,0,5.1,0,66.1,0
1/2/2004 5:30,16.3,0,48.2,0,17.4,0,12.3,0,4.8,0,67.3,0
1/2/2004 5:45,16.1,0,48.2,0,17.3,0,12.3,0,4.6,0,68.6,0
1/2/2004 6:00,15.9,0,48.1,0,17.1,0,12.4,0,4.4,0,69.8,0
1/2/2004 6:15,15.7,0,48,0,17,0,12.4,0,4.6,0,69.1,0
1/2/2004 6:30,15.5,0,48.1,0,16.9,0,12.4,0,4.9,0,68.3,0
1/2/2004 6:45,15.6,0,48.3,0,16.8,0,12.5,0,5.1,0,67.6,0
1/2/2004 7:00,16.3,0,48.2,0,16.8,0,12.5,0,5.4,0,66.8,0
1/2/2004 7:15,16.7,0,47.9,0,16.8,0,12.5,0,5.9,0,64.6,0
1/2/2004 7:30,17.1,0,47.6,0,16.8,0,12.5,0,6.3,0,62.3,0
1/2/2004 7:45,17.4,0,47.3,0,16.8,0,12.6,0,6.8,0,60.1,0
1/2/2004 8:00,17.4,0,47.1,0,16.8,0,12.6,0,7.3,0,57.8,0
1/2/2004 8:15,17.3,0,46.6,0,16.8,0,12.6,0,7.6,0,57,0
1/2/2004 8:30,17.2,0,46.1,0,16.8,0,12.6,0,8,0,56.3,0
1/2/2004 8:45,17,0,46.1,0,16.8,0,12.6,0,8.3,0,55.5,0
1/2/2004 9:00,16.9,0,46.1,0,16.8,0,12.6,0,8.7,0,54.8,0
1/2/2004 9:15,16.9,0,46.8,0,16.9,0,12.7,0,9.3,0,54.3,0
1/2/2004 9:30,16.9,0,47.2,0,16.9,0,12.7,0,10,0,53.8,0
1/2/2004 9:45,16.9,0,47.5,0,16.9,0,12.7,0,10.6,0,53.3,0
1/2/2004 10:00,17.4,0,47.1,0,17,0,12.7,0,11.3,0,52.8,0
1/2/2004 10:15,17.8,0,46.9,0,17.1,0,12.7,0,11.4,0,52,0
1/2/2004 10:30,18.3,0,48,0,17.3,0,12.7,0,11.6,0,51.3,0
1/2/2004 10:45,18.8,0,48.2,0,17.5,0,12.7,0,11.7,0,50.5,0
1/2/2004 11:00,19.2,0,48.4,0,17.7,0,11.5,0,11.9,0,49.8,0
1/2/2004 11:15,19.4,0,47.8,0,17.9,0,11.6,0,12.1,0,49.5,0
1/2/2004 11:30,19.6,0,47.5,0,18.1,0,11.6,0,12.3,0,49.3,0
1/2/2004 11:45,19.8,0,47.1,0,18.4,0,11.6,0,12.6,0,49,0
1/2/2004 12:00,19.9,0,46.5,0,18.6,0,11.1,0,12.8,0,48.8,0
1/2/2004 12:15,20,0,46.8,0,18.8,0,11.1,0,12.9,0,50.5,0
1/2/2004 12:30,20.3,0,47.1,0,19.1,0,11.2,0,13,0,52.3,0
1/2/2004 12:45,20.4,0,47.2,0,19.4,0,10.8,0,13.2,0,54,0
1/2/2004 13:00,20.5,0,47.6,0,19.6,0,10.9,0,13.3,0,55.8,0
1/2/2004 13:15,20.7,0,47.8,0,19.8,0,11,0,13.5,0,55.5,0
1/2/2004 13:30,20.8,0,47.9,0,19.9,0,11,0,13.6,0,55.3,0
1/2/2004 13:45,20.9,0,48,0,20.1,0,11.1,0,13.8,0,55,0
1/2/2004 14:00,21,0,48.1,0,20.3,0,11.1,0,14,0,54.8,0
1/2/2004 14:15,21.3,0,47.8,0,20.5,0,11.2,0,13.9,0,54.8,0
1/2/2004 14:30,21.1,0,48.2,0,20.6,0,11.2,0,13.9,0,54.8,0
1/2/2004 14:45,21,0,48.4,0,20.8,0,11.3,0,13.8,0,54.8,0
1/2/2004 15:00,20.9,0,48.4,0,20.9,0,11.4,0,13.8,0,54.8,0
1/2/2004 15:15,20.8,0,48.2,0,20.9,0,11.4,0,13.8,0,55,0
1/2/2004 15:30,20.8,0,48,0,21,0,11.5,0,13.8,0,55.3,0
1/2/2004 15:45,20.8,0,47.9,0,21.1,0,11.6,0,13.8,0,55.5,0
1/2/2004 16:00,20.7,0,47.9,0,21.2,0,11.6,0,13.8,0,55.8,0
1/2/2004 16:15,20.4,0,46.7,0,21.3,0,11.7,0,13.7,0,55.8,0
1/2/2004 16:30,20,0,46.3,0,21.3,0,11.8,0,13.6,0,55.8,0
1/2/2004 16:45,19.8,0,46.7,0,21.4,0,11.8,0,13.6,0,55.8,0
1/2/2004 17:00,19.6,0,46.9,0,21.3,0,11.3,0,13.5,0,55.8,0
1/2/2004 17:15,19.6,0,47,0,21.3,0,11.4,0,13.4,0,55.8,0
1/2/2004 17:30,19.5,0,47.6,0,21.3,0,11.5,0,13.2,0,55.8,0
1/2/2004 17:45,19.5,0,47.7,0,21.2,0,11.5,0,13.1,0,55.8,0
1/2/2004 18:00,19.4,0,48.2,0,21.1,0,11.6,0,13,0,55.8,0
1/2/2004 18:15,19.5,0,47.9,0,21.1,0,11.7,0,12.9,0,55.8,0
1/2/2004 18:30,19.9,0,48.3,0,21.2,0,11.7,0,12.8,0,55.8,0
1/2/2004 18:45,20.3,0,50.2,0,21.1,0,11.8,0,12.7,0,55.8,0
1/2/2004 19:00,20.6,0,52,0,21.1,0,11.9,0,12.6,0,55.8,0
1/2/2004 19:15,20.8,0,52.7,0,21.1,0,12,0,12.3,0,56.8,0
1/2/2004 19:30,21,0,52.8,0,21.1,0,12,0,12,0,57.8,0
1/2/2004 19:45,21.1,0,52.5,0,21,0,12.1,0,11.8,0,58.8,0
1/2/2004 20:00,21.2,0,52.1,0,21,0,12.2,0,11.5,0,59.8,0
1/2/2004 20:15,21.4,0,51.5,0,21,0,12.3,0,11.1,0,62.3,0
1/2/2004 20:30,21.5,0,51.3,0,21,0,12.3,0,10.7,0,64.8,0
1/2/2004 20:45,21.7,0,51.4,0,20.9,0,12.4,0,10.3,0,67.3,0
1/2/2004 21:00,21.7,0,51.2,0,20.9,0,12.5,0,9.9,0,69.8,0
1/2/2004 21:15,21.8,0,50.6,0,20.9,0,11.2,0,9.8,0,70.3,0
1/2/2004 21:30,21.8,0,49.8,0,20.9,0,11.2,0,9.7,0,70.8,0
1/2/2004 21:45,22.1,0,51.9,0,20.9,0,11.3,0,9.6,0,71.3,0
1/2/2004 22:00,21.5,0,50.1,0,20.9,0,10.3,0,9.5,0,71.8,0
1/2/2004 22:15,21.5,0,52.7,0,20.9,0,9.6,0,9.4,0,72.3,0
1/2/2004 22:30,21.6,0,54.4,0,20.8,0,9.7,0,9.3,0,72.8,0
1/2/2004 22:45,21.4,0,56.1,0,20.8,0,9.8,0,9.2,0,73.3,0
1/2/2004 23:00,21.3,0,57,0,20.8,0,9.9,0,9.1,0,73.8,0
1/2/2004 23:15,21.4,0,57.5,0,20.9,0,9.9,0,9,0,73.3,0
1/2/2004 23:30,21.4,0,57.2,0,21,0,10,0,8.8,0,72.8,0
1/2/2004 23:45,21.5,0,55.8,0,21.1,0,10.1,0,8.7,0,72.3,0
1/3/2004 0:00,21.5,0,55.1,0,21.1,0,10.2,0,8.6,0,71.8,0
1/3/2004 0:15,21.5,0,53.4,0,21.1,0,10.4,0,8.3,0,70.8,0
1/3/2004 0:30,21.6,0,52.7,0,21.1,0,10.5,0,8.1,0,69.8,0
1/3/2004 0:45,21.6,0,51.8,0,21.3,0,10.6,0,7.8,0,68.8,0
1/3/2004 1:00,21.6,0,50.8,0,21.4,0,10.7,0,7.6,0,67.8,0
1/3/2004 1:15,21.6,0,50.1,0,21.5,0,10.8,0,7.7,0,67.3,0
1/3/2004 1:30,21.6,0,49.3,0,21.5,0,10.9,0,7.8,0,66.8,0
1/3/2004 1:45,21.6,0,48.9,0,21.5,0,11,0,7.9,0,66.3,0
1/3/2004 2:00,21.6,0,48.1,0,21.4,0,11.1,0,8,0,65.8,0
1/3/2004 2:15,21.6,0,47.7,0,21.4,0,11.2,0,8,0,65.6,0
1/3/2004 2:30,21.6,0,47,0,21.4,0,11.3,0,8,0,65.3,0
1/3/2004 2:45,21.6,0,47,0,21.4,0,11.4,0,8,0,65.1,0
1/3/2004 3:00,21.6,0,46.5,0,21.3,0,11.5,0,8,0,64.8,0
1/3/2004 3:15,21.6,0,45.9,0,21.2,0,11.6,0,8.1,0,64.1,0
1/3/2004 3:30,21.6,0,45.5,0,21.1,0,11.6,0,8.3,0,63.3,0
1/3/2004 3:45,21.6,0,45.3,0,21,0,11.7,0,8.4,0,62.6,0
1/3/2004 4:00,21.6,0,44.9,0,20.9,0,11.8,0,8.6,0,61.8,0
1/3/2004 4:15,21.5,0,44.9,0,20.8,0,11.9,0,8.1,0,64.3,0
1/3/2004 4:30,21.5,0,44.6,0,20.7,0,11.9,0,7.7,0,66.8,0
1/3/2004 4:45,21.4,0,44.6,0,20.6,0,12,0,7.2,0,69.3,0
1/3/2004 5:00,21.4,0,44.4,0,20.5,0,12,0,6.8,0,71.8,0
1/3/2004 5:15,21.4,0,44.2,0,20.4,0,12.1,0,6.7,0,72.1,0
1/3/2004 5:30,21.4,0,44.2,0,20.3,0,12.2,0,6.6,0,72.3,0
1/3/2004 5:45,21.3,0,44,0,20.2,0,12.2,0,6.6,0,72.6,0
1/3/2004 6:00,21.2,0,44.4,0,19.9,0,12.3,0,6.5,0,72.8,0
1/3/2004 6:15,21.1,0,44.2,0,19.7,0,12.3,0,6.4,0,72.6,0
1/3/2004 6:30,21,0,44.1,0,19.5,0,12.4,0,6.4,0,72.3,0
1/3/2004 6:45,20.9,0,43.9,0,19.4,0,12.5,0,6.3,0,72.1,0
1/3/2004 7:00,20.9,0,43.9,0,19.3,0,12.5,0,6.3,0,71.8,0
1/3/2004 7:15,20.8,0,43.7,0,19.2,0,12.5,0,6.3,0,71.8,0
1/3/2004 7:30,20.8,0,43.7,0,19.2,0,12.6,0,6.4,0,71.8,0
1/3/2004 7:45,20.7,0,43.5,0,19.1,0,12.6,0,6.4,0,71.8,0
1/3/2004 8:00,20.4,0,43.6,0,19,0,12.6,0,6.5,0,71.8,0
1/3/2004 8:15,20,0,43.7,0,18.9,0,12.7,0,6.9,0,70.1,0
1/3/2004 8:30,19.8,0,44.3,0,18.8,0,12.7,0,7.2,0,68.3,0
1/3/2004 8:45,19.7,0,45.2,0,18.8,0,11.7,0,7.6,0,66.6,0
1/3/2004 9:00,19.6,0,46.6,0,18.8,0,11.7,0,8,0,64.8,0
1/3/2004 9:15,19.7,0,50.2,0,18.8,0,11.7,0,8.4,0,63.1,0
1/3/2004 9:30,19.7,0,51.7,0,18.9,0,11.8,0,8.9,0,61.3,0
1/3/2004 9:45,19.8,0,52.4,0,18.9,0,11.8,0,9.3,0,59.6,0
1/3/2004 10:00,19.8,0,54.1,0,19,0,11.8,0,9.8,0,57.8,0
1/3/2004 10:15,19.5,0,51.5,0,19.1,0,11.9,0,10.1,0,57.8,0
1/3/2004 10:30,19.3,0,50.7,0,19.2,0,10.9,0,10.5,0,57.8,0
1/3/2004 10:45,19.2,0,50,0,19.3,0,10.9,0,10.8,0,57.8,0
1/3/2004 11:00,19.2,0,49.6,0,19.3,0,11,0,11.2,0,57.8,0
1/3/2004 11:15,19.4,0,49.8,0,19.4,0,11,0,11.5,0,55.8,0
1/3/2004 11:30,19.5,0,49.8,0,19.5,0,11.1,0,11.8,0,53.8,0
1/3/2004 11:45,19.6,0,49.9,0,19.6,0,11.2,0,12.2,0,51.8,0
1/3/2004 12:00,19.7,0,50.1,0,19.7,0,11.2,0,12.5,0,49.8,0
1/3/2004 12:15,19.8,0,50.2,0,19.8,0,11.3,0,12.6,0,48,0
1/3/2004 12:30,19.9,0,50.4,0,20,0,11.3,0,12.8,0,46.3,0
1/3/2004 12:45,20,0,50.5,0,20.1,0,11.4,0,12.9,0,44.5,0
1/3/2004 13:00,20.1,0,50.6,0,20.3,0,11.5,0,13.1,0,42.8,0
1/3/2004 13:15,20.3,0,50.5,0,20.4,0,11.5,0,13.3,0,43,0
1/3/2004 13:30,20.4,0,50.4,0,20.6,0,11.6,0,13.5,0,43.3,0
1/3/2004 13:45,20.5,0,50.3,0,20.8,0,11.7,0,13.7,0,43.5,0
1/3/2004 14:00,20.7,0,50.2,0,21,0,11.7,0,13.9,0,43.8,0
1/3/2004 14:15,21.1,0,49.8,0,21.2,0,11.8,0,13.8,0,45,0
1/3/2004 14:30,21.2,0,49.2,0,21.3,0,11.9,0,13.6,0,46.3,0
1/3/2004 14:45,21.6,0,48.6,0,21.5,0,12,0,13.5,0,47.5,0
1/3/2004 15:00,21.5,0,48.5,0,21.6,0,12,0,13.4,0,48.8,0
1/3/2004 15:15,21.5,0,48.7,0,21.7,0,12.1,0,13.3,0,48,0
1/3/2004 15:30,21.4,0,48.7,0,21.8,0,12.2,0,13.2,0,47.3,0
1/3/2004 15:45,21.3,0,48.7,0,21.8,0,12.2,0,13.2,0,46.5,0
1/3/2004 16:00,21.2,0,48.7,0,21.8,0,12.3,0,13.1,0,45.8,0
1/3/2004 16:15,21,0,48.6,0,21.8,0,12.4,0,12.7,0,47.8,0
1/3/2004 16:30,20.8,0,48.4,0,21.7,0,12.4,0,12.3,0,49.8,0
1/3/2004 16:45,20.6,0,48.2,0,21.6,0,12.5,0,11.9,0,51.8,0
1/3/2004 17:00,20.4,0,47.9,0,21.5,0,12.6,0,11.5,0,53.8,0
1/3/2004 17:15,20.2,0,47.6,0,21.4,0,12.6,0,11.1,0,54.3,0
1/3/2004 17:30,20,0,47.3,0,21.2,0,12.7,0,10.8,0,54.8,0
1/3/2004 17:45,19.8,0,47.3,0,21.1,0,12.8,0,10.4,0,55.3,0
1/3/2004 18:00,19.7,0,47.3,0,21,0,12.8,0,10.1,0,55.8,0
1/3/2004 18:15,19.7,0,47.5,0,20.8,0,12.9,0,9.9,0,55.5,0
1/3/2004 18:30,19.9,0,47.6,0,20.7,0,13,0,9.7,0,55.3,0
1/3/2004 18:45,20.2,0,47.8,0,20.7,0,13,0,9.6,0,55,0
1/3/2004 19:00,20.4,0,48,0,20.6,0,13.1,0,9.4,0,54.8,0
1/3/2004 19:15,20.5,0,47.6,0,20.5,0,13.1,0,9.8,0,52,0
1/3/2004 19:30,20.6,0,47.5,0,20.4,0,13.2,0,10.2,0,49.3,0
1/3/2004 19:45,20.7,0,47.1,0,20.4,0,13.3,0,10.7,0,46.5,0
1/3/2004 20:00,20.8,0,46.9,0,20.3,0,13.3,0,11.1,0,43.8,0
1/3/2004 20:15,20.8,0,46.6,0,20.2,0,13.4,0,10.9,0,43.5,0
1/3/2004 20:30,20.9,0,46.4,0,20.1,0,13.4,0,10.8,0,43.3,0
1/3/2004 20:45,20.9,0,46,0,20.1,0,13.5,0,10.6,0,43,0
1/3/2004 21:00,20.9,0,45.6,0,20,0,13.5,0,10.5,0,42.8,0
1/3/2004 21:15,20.9,0,45.3,0,19.9,0,13.6,0,10.3,0,43.3,0
1/3/2004 21:30,20.9,0,45.1,0,19.9,0,13.6,0,10.1,0,43.8,0
1/3/2004 21:45,20.9,0,44.8,0,19.8,0,13.6,0,10,0,44.3,0
1/3/2004 22:00,20.5,0,42.6,0,19.7,0,13.7,0,9.8,0,44.8,0
1/3/2004 22:15,20.4,0,43.8,0,19.6,0,13.7,0,9.7,0,45,0
1/3/2004 22:30,20.4,0,45.4,0,19.5,0,11.8,0,9.5,0,45.3,0
1/3/2004 22:45,20.5,0,47.1,0,19.4,0,11.8,0,9.4,0,45.5,0
1/3/2004 23:00,20.8,0,49.2,0,19.4,0,11.9,0,9.3,0,45.8,0
1/3/2004 23:15,20.9,0,50.3,0,19.5,0,11.9,0,9.1,0,46,0
1/3/2004 23:30,21,0,51.5,0,19.6,0,11.1,0,9,0,46.3,0
1/3/2004 23:45,21.1,0,51.8,0,19.6,0,10.8,0,8.8,0,46.5,0
1/4/2004 0:00,21.1,0,52.2,0,19.6,0,10.8,0,8.7,0,46.8,0
1/4/2004 0:15,21.2,0,51.8,0,19.5,0,10.9,0,8.5,0,47.3,0
1/4/2004 0:30,21,0,51.1,0,19.5,0,10.9,0,8.4,0,47.8,0
1/4/2004 0:45,20.7,0,50.2,0,19.6,0,11,0,8.2,0,48.3,0
1/4/2004 1:00,20.3,0,49.1,0,19.5,0,11.1,0,8.1,0,48.8,0
1/4/2004 1:15,20,0,48.8,0,19.4,0,11.2,0,8,0,49,0
1/4/2004 1:30,19.7,0,48.2,0,19.3,0,11.3,0,7.8,0,49.3,0
1/4/2004 1:45,19.5,0,48.2,0,19.1,0,11.3,0,7.7,0,49.5,0
1/4/2004 2:00,19.2,0,48,0,19,0,11.4,0,7.6,0,49.8,0
1/4/2004 2:15,19,0,48.2,0,18.9,0,11.6,0,7.5,0,50,0
1/4/2004 2:30,18.7,0,48,0,18.7,0,11.6,0,7.4,0,50.3,0
1/4/2004 2:45,18.5,0,48.1,0,18.6,0,11.6,0,7.4,0,50.5,0
1/4/2004 3:00,18.2,0,48.1,0,18.5,0,11.7,0,7.3,0,50.8,0
1/4/2004 3:15,18,0,48,0,18.3,0,11.8,0,7.3,0,50.8,0
1/4/2004 3:30,17.7,0,48.1,0,18.2,0,11.8,0,7.2,0,50.8,0
1/4/2004 3:45,17.5,0,48.4,0,18,0,11.9,0,7.2,0,50.8,0
1/4/2004 4:00,17.2,0,48.5,0,17.9,0,12.1,0,7.2,0,50.8,0
1/4/2004 4:15,17,0,48.5,0,17.7,0,12.1,0,7.2,0,50.8,0
1/4/2004 4:30,16.8,0,48.6,0,17.6,0,12.1,0,7.1,0,50.8,0
1/4/2004 4:45,16.6,0,48.5,0,17.4,0,12.2,0,7.1,0,50.8,0
1/4/2004 5:00,16.4,0,48.7,0,17.3,0,12.2,0,7.1,0,50.8,0
1/4/2004 5:15,16.1,0,48.5,0,17.1,0,12.2,0,7.1,0,50.8,0
1/4/2004 5:30,15.9,0,48.7,0,17,0,12.3,0,7,0,50.8,0
1/4/2004 5:45,15.7,0,48.5,0,16.8,0,12.3,0,7,0,50.8,0
1/4/2004 6:00,15.5,0,48.8,0,16.6,0,12.3,0,7,0,50.8,0
1/4/2004 6:15,15.3,0,48.8,0,16.4,0,12.4,0,7,0,50.5,0
1/4/2004 6:30,15.1,0,49.1,0,16.3,0,12.4,0,6.9,0,50.3,0
1/4/2004 6:45,15.2,0,49.4,0,16.2,0,12.4,0,6.9,0,50,0
1/4/2004 7:00,15.9,0,49.5,0,16.2,0,12.5,0,6.9,0,49.8,0
1/4/2004 7:15,16.4,0,49.3,0,16.2,0,12.5,0,6.9,0,49.3,0
1/4/2004 7:30,16.8,0,49.1,0,16.2,0,12.5,0,7,0,48.8,0
1/4/2004 7:45,17.1,0,48.8,0,16.3,0,12.5,0,7,0,48.3,0
1/4/2004 8:00,17.1,0,48.8,0,16.2,0,12.5,0,7.1,0,47.8,0
1/4/2004 8:15,17,0,48.5,0,16.2,0,12.6,0,7.3,0,46.3,0
1/4/2004 8:30,17.2,0,48.4,0,16.3,0,11.6,0,7.6,0,44.8,0
1/4/2004 8:45,17.5,0,48,0,16.4,0,11.6,0,7.8,0,43.3,0
1/4/2004 9:00,17.9,0,47.9,0,16.5,0,11.7,0,8.1,0,41.8,0
1/4/2004 9:15,18.5,0,46.5,0,16.5,0,11.7,0,8.4,0,40.3,0
1/4/2004 9:30,19,0,46.8,0,16.6,0,11.7,0,8.7,0,38.8,0
1/4/2004 9:45,19.5,0,46.9,0,16.7,0,11.1,0,9.1,0,37.3,0
1/4/2004 10:00,19.9,0,47.8,0,16.8,0,11.1,0,9.4,0,35.8,0
1/4/2004 10:15,20.2,0,47.8,0,16.9,0,10.8,0,9.5,0,34.8,0
1/4/2004 10:30,20.4,0,47.2,0,16.8,0,10.8,0,9.7,0,33.8,0
1/4/2004 10:45,20.4,0,42.2,0,16.7,0,10.8,0,9.8,0,32.8,0
1/4/2004 11:00,19.6,0,35.9,0,17,0,10.9,0,10,0,31.8,0
1/4/2004 11:15,19,0,36.8,0,17.3,0,10.9,0,10,0,30.8,0
1/4/2004 11:30,19.3,0,38.7,0,17.4,0,10.2,0,10,0,29.8,0
1/4/2004 11:45,19.2,0,36.8,0,17.5,0,10.2,0,10.1,0,28.8,0
1/4/2004 12:00,19.4,0,38.2,0,17.6,0,10.3,0,10.1,0,27.8,0
1/4/2004 12:15,19.5,0,40.1,0,17.6,0,10.3,0,10.2,0,27.5,0
1/4/2004 12:30,19.5,0,41.7,0,17.5,0,10.4,0,10.4,0,27.3,0
1/4/2004 12:45,19.9,0,43.3,0,17.4,0,10.4,0,10.5,0,27,0
1/4/2004 13:00,20.2,0,43.4,0,17.4,0,10.5,0,10.7,0,26.8,0
1/4/2004 13:15,20.5,0,42.5,0,17.4,0,10.6,0,10.7,0,27,0
1/4/2004 13:30,20.7,0,41.8,0,17.4,0,10.7,0,10.8,0,27.3,0
1/4/2004 13:45,19.4,0,36.4,0,17.5,0,9.9,0,10.8,0,27.5,0
1/4/2004 14:00,19.8,0,40.3,0,17.7,0,9.9,0,10.9,0,27.8,0
1/4/2004 14:15,19.8,0,42.5,0,17.8,0,10,0,10.9,0,27.3,0
1/4/2004 14:30,19.8,0,43.5,0,18,0,10,0,10.8,0,26.8,0
1/4/2004 14:45,19.8,0,45,0,18.1,0,10.1,0,10.8,0,26.3,0
1/4/2004 15:00,19.9,0,46.4,0,18.2,0,10.4,0,10.8,0,25.8,0
1/4/2004 15:15,19.9,0,47.1,0,18.3,0,10.5,0,10.7,0,25.5,0
1/4/2004 15:30,19.8,0,46.9,0,18.4,0,10.5,0,10.7,0,25.3,0
1/4/2004 15:45,19.7,0,47.7,0,18.4,0,10.6,0,10.6,0,25,0
1/4/2004 16:00,19.6,0,48.7,0,18.4,0,10.7,0,10.6,0,24.8,0
1/4/2004 16:15,19.4,0,50.7,0,18.4,0,10.8,0,10.5,0,24.8,0
1/4/2004 16:30,19.2,0,51.5,0,18.4,0,10.9,0,10.4,0,24.8,0
1/4/2004 16:45,19,0,53.2,0,18.4,0,10.9,0,10.4,0,24.8,0
1/4/2004 17:00,18.8,0,54.4,0,18.3,0,10.9,0,10.3,0,24.8,0
1/4/2004 17:15,18.6,0,53.2,0,18.3,0,11,0,10,0,26.8,0
1/4/2004 17:30,18.5,0,53.3,0,18.2,0,11,0,9.8,0,28.8,0
1/4/2004 17:45,18.9,0,53.6,0,18.2,0,11.1,0,9.5,0,30.8,0
1/4/2004 18:00,19.2,0,54,0,18.2,0,11.1,0,9.3,0,32.8,0
1/4/2004 18:15,19.5,0,55.5,0,18.3,0,11.2,0,9,0,37,0
1/4/2004 18:30,19.8,0,56.5,0,18.4,0,11.2,0,8.7,0,41.3,0
1/4/2004 18:45,19.8,0,54.8,0,18.4,0,11.3,0,8.5,0,45.5,0
1/4/2004 19:00,20.2,0,56.1,0,18.5,0,11.3,0,8.2,0,49.8,0
1/4/2004 19:15,20.3,0,56.1,0,18.5,0,11.4,0,8.2,0,49,0
1/4/2004 19:30,20.5,0,56.3,0,18.5,0,11.5,0,8.1,0,48.3,0
1/4/2004 19:45,20.5,0,55.2,0,18.5,0,10.6,0,8.1,0,47.5,0
1/4/2004 20:00,20.6,0,54.8,0,18.5,0,9.9,0,8.1,0,46.8,0
1/4/2004 20:15,20.7,0,54,0,18.5,0,10,0,8.1,0,46.3,0
1/4/2004 20:30,20.7,0,52.3,0,18.5,0,9.9,0,8.1,0,45.8,0
1/4/2004 20:45,20.8,0,52.1,0,18.6,0,10,0,8.1,0,45.3,0
1/4/2004 21:00,20.9,0,51.7,0,18.6,0,10.1,0,8.1,0,44.8,0
1/4/2004 21:15,21.1,0,52.2,0,18.6,0,10.1,0,8,0,44.8,0
1/4/2004 21:30,21.1,0,52.2,0,18.7,0,10.2,0,7.9,0,44.8,0
1/4/2004 21:45,21.1,0,52.1,0,18.7,0,10.3,0,7.9,0,44.8,0
1/4/2004 22:00,20.7,0,50.6,0,18.7,0,10.5,0,7.8,0,44.8,0
1/4/2004 22:15,21,0,50.8,0,18.7,0,10.6,0,7.7,0,45.5,0
1/4/2004 22:30,21.1,0,50.9,0,18.8,0,10.7,0,7.6,0,46.3,0
1/4/2004 22:45,21.2,0,50.3,0,18.8,0,10.8,0,7.6,0,47,0
1/4/2004 23:00,21.2,0,50.1,0,18.9,0,10.8,0,7.5,0,47.8,0
1/4/2004 23:15,21.3,0,49.5,0,18.9,0,11,0,7.5,0,47.5,0
1/4/2004 23:30,21.3,0,49.1,0,18.9,0,10.9,0,7.4,0,47.3,0
1/4/2004 23:45,21.3,0,48.7,0,18.9,0,11,0,7.4,0,47,0
1/5/2004 0:00,21.4,0,48.1,0,18.9,0,11,0,7.4,0,46.8,0
1/5/2004 0:15,21.4,0,47.8,0,18.9,0,11.1,0,7.3,0,46.5,0
1/5/2004 0:30,21.4,0,47.2,0,18.9,0,11,0,7.3,0,46.3,0
1/5/2004 0:45,21.3,0,46.8,0,18.9,0,11.1,0,7.2,0,46,0
1/5/2004 1:00,21.2,0,45.9,0,19,0,10.7,0,7.2,0,45.8,0
1/5/2004 1:15,20.9,0,45.6,0,18.9,0,10.8,0,7.1,0,46,0
1/5/2004 1:30,20.5,0,45.3,0,18.8,0,10.8,0,7,0,46.3,0
1/5/2004 1:45,20.1,0,44.8,0,18.7,0,10.9,0,6.9,0,46.5,0
1/5/2004 2:00,19.8,0,44.9,0,18.6,0,10.9,0,6.8,0,46.8,0
1/5/2004 2:15,19.5,0,44.8,0,18.5,0,11.1,0,6.6,0,47.8,0
1/5/2004 2:30,19.2,0,44.9,0,18.4,0,11.1,0,6.5,0,48.8,0
1/5/2004 2:45,18.9,0,45,0,18.2,0,11.2,0,6.3,0,49.8,0
1/5/2004 3:00,18.6,0,45.1,0,18.1,0,11.3,0,6.2,0,50.8,0
1/5/2004 3:15,18.3,0,45.1,0,18,0,11.3,0,6.2,0,51.3,0
1/5/2004 3:30,18.1,0,45.2,0,17.9,0,11.3,0,6.1,0,51.8,0
1/5/2004 3:45,17.8,0,45.5,0,17.8,0,11.4,0,6.1,0,52.3,0
1/5/2004 4:00,17.5,0,45.8,0,17.6,0,11.4,0,6.1,0,52.8,0
1/5/2004 4:15,17.2,0,46.1,0,17.5,0,11.5,0,6,0,52.8,0
1/5/2004 4:30,17,0,46.4,0,17.4,0,11.6,0,5.9,0,52.8,0
1/5/2004 4:45,16.7,0,46.8,0,17.3,0,11.6,0,5.9,0,52.8,0
1/5/2004 5:00,16.5,0,47.3,0,17.1,0,11.7,0,5.8,0,52.8,0
1/5/2004 5:15,16.3,0,47.6,0,16.9,0,11.7,0,5.7,0,52.3,0
1/5/2004 5:30,16.1,0,47.9,0,16.7,0,11.8,0,5.6,0,51.8,0
1/5/2004 5:45,15.8,0,48.1,0,16.6,0,11.8,0,5.6,0,51.3,0
1/5/2004 6:00,15.6,0,48.2,0,16.4,0,11.9,0,5.5,0,50.8,0
1/5/2004 6:15,15.4,0,48.3,0,16.3,0,11.9,0,5.4,0,51,0
1/5/2004 6:30,15.2,0,48.3,0,16.1,0,12,0,5.2,0,51.3,0
1/5/2004 6:45,15.4,0,48.3,0,16,0,12,0,5.1,0,51.5,0
1/5/2004 7:00,16.2,0,48.3,0,16.1,0,11.4,0,5,0,51.8,0
1/5/2004 7:15,16.7,0,49,0,16.2,0,11.4,0,5,0,51.8,0
1/5/2004 7:30,17.2,0,50.5,0,16.2,0,11.4,0,5,0,51.8,0
1/5/2004 7:45,17.5,0,50.8,0,16.1,0,11,0,5,0,51.8,0
1/5/2004 8:00,17.6,0,52,0,16,0,11,0,5,0,51.8,0
1/5/2004 8:15,17.5,0,53.8,0,15.9,0,11,0,5.1,0,51.5,0
1/5/2004 8:30,17.9,0,55.3,0,15.9,0,11.1,0,5.2,0,51.3,0
1/5/2004 8:45,18.2,0,55.2,0,15.9,0,10.8,0,5.4,0,51,0
1/5/2004 9:00,18.5,0,56,0,16.1,0,10.8,0,5.5,0,50.8,0
1/5/2004 9:15,18.8,0,55.8,0,16.3,0,10.9,0,5.6,0,49.8,0
1/5/2004 9:30,19,0,55,0,16.4,0,10.9,0,5.7,0,48.8,0
1/5/2004 9:45,19.2,0,53.8,0,16.5,0,10.9,0,5.9,0,47.8,0
1/5/2004 10:00,18.7,0,49.6,0,16.6,0,11,0,6,0,46.8,0
1/5/2004 10:15,18.8,0,49.8,0,16.7,0,11,0,6.2,0,47.3,0
1/5/2004 10:30,18.8,0,50.3,0,16.7,0,11.1,0,6.5,0,47.8,0